Terug naar catalogus

ARIANE 42P DEB

ActiefLEO
NORAD 44510·DEBRIS·🇫🇷 France

Gelanceerd Aug 10, 1992 vanaf Guiana Space Centre

Loading…

Volgende Passages (komende 24 uur)

TLE

VersSource: Space-Track

Epoch: Sep 13, 2026, 23:26 UTC

1 44510U 92052H   26256.97703407  .00000553  00000-0  25756-2 0  9990
2 44510  66.0594 113.3021 0081153 248.7372 110.4964 12.82443886330982

Volg ARIANE 42P DEB in realtime met AllMySat

Download on the App Store